Regional Weather Roundup
Issued by NWS

Home | Current Version | Previous Version | Graphics & Text | Print | Product List | Glossary On
Versions: 1 2 3 4 5 6 7 8 9 10 11 12 13 14 15 16 17 18 19 20 21 22 23 24 25 26 27
000
ASUS45 KBOU 261007
RWRCO

WEATHER ROUNDUP FOR COLORADO
NATIONAL WEATHER SERVICE DENVER/BOULDER CO
300 AM MST SUN FEB 26 2017

NOTE: "FAIR" INDICATES FEW OR NO CLOUDS BELOW 12000 FEET WITH NO
SIGNIFICANT WEATHER AND/OR OBSTRUCTIONS TO VISIBILITY.

COZ001>005-013-030-031-261100-
...NORTHWEST COLORADO...

CITY           SKY/WX    TMP DP  RH WIND       PRES   REMARKS
CRAIG          FAIR       8   3  80 W3        29.91S
HAYDEN         FAIR      12   5  73 CALM      29.88S
MEEKER         FAIR       3  -2  79 NE5       29.91S WCI  -6
MOUNT WERNER   NOT AVBL
STEAMBOAT SPGS MOCLDY    12   3  67 CALM      29.86S
WALDEN         NOT AVBL
$$

COZ006>008-011-261100-
...WEST CENTRAL VALLEYS...

CITY           SKY/WX    TMP DP  RH WIND       PRES   REMARKS
GRAND JUNCTION FAIR      16  11  80 CALM      29.94R
MONTROSE       CLOUDY    24  16  71 SE7       29.93S WCI  16
EAGLE          CLOUDY    12   7  80 E9        29.91S WCI   0
RIFLE          FAIR      18  12  77 SE3       29.93F
DELTA          MOCLDY    24  13  61 N6        29.93F WCI  17
NUCLA          CLOUDY    27  19  74 S5        29.96S WCI  21
$$

COZ017>023-064>068-261100-
...SOUTHWEST COLORADO...

CITY           SKY/WX    TMP DP  RH WIND       PRES   REMARKS
DURANGO        FAIR      23   9  55 SW7       29.85S WCI  15
CORTEZ         FAIR      22  17  81 CALM      29.89F
PAGOSA SPRINGS CLOUDY    20   9  60 CALM      29.83F
TELLURIDE      LGT SNOW  14  13  92 CALM      29.83F
WOLF CREEK PAS CLOUDY     3   1  92 SW12G17   29.77S WCI -13
$$

COZ009-010-012-014-032>034-037-058>063-261100-
...CENTRAL COLORADO...

CITY           SKY/WX    TMP DP  RH WIND       PRES   REMARKS
ASPEN          CLOUDY    11   7  84 CALM      29.82F
BUENA VISTA    FAIR      18  -2  42 CALM      29.76R
COPPER MTN     FAIR       1  -8  66 MISG      29.63R
BERTHOUD PASS  HAZE      -9 -18  64 NW36G45   29.53F VSB 3/4 WCI -41
COTTONWOOD PAS FAIR      14  -2  48 NW6G33    29.68R WCI   5
GUNNISON       FAIR      10   6  84 CALM      29.85F
KREMMLING      FAIR       9   3  78 CALM      29.85S
LEADVILLE      FAIR       3  -5  69 NE6       29.71F WCI  -8
MONARCH PASS   CLOUDY     1  -4  78 W33G45    29.74S WCI -25
SALIDA         FAIR      22   2  42 W10       29.85S WCI  11
SUNLIGHT       NOT AVBL
WILKERSON PASS FAIR       3  -6  66 W13G30    29.59F WCI -14
$$

COZ069>075-261100-
...SAN LUIS VALLEY/SANGRE DE CRISTO MOUNTAINS...

CITY           SKY/WX    TMP DP  RH WIND       PRES   REMARKS
ALAMOSA        FAIR      18   9  68 NE8       29.80F WCI   8
LA VETA PASS   FAIR      12   5  73 SW14G23   29.70F WCI  -3
SAGUACHE       FAIR      18   7  62 N13       29.82S WCI   4
$$

COZ035-036-038>040-261100-
...NORTHERN COLORADO FRONT RANGE...

CITY           SKY/WX    TMP DP  RH WIND       PRES   REMARKS
DENVER INTL AP FAIR      15   4  61 NE9       29.76F WCI   3
DMNS CITY PARK   N/A     23   6  49 S2G8      29.77S
AURORA         PTCLDY    22  -1  36 CALM      29.76F
FRONT RANGE AP FAIR      19   9  63 N9        29.77F WCI   9
ERIE MUNI ARPT FAIR      22   3  43 CALM      29.77F
BOULDER MUN AP FAIR      25   5  42 CALM      29.76S
CENTENNIAL     FAIR      18   3  52 S6        29.75F WCI  10
BROOMFIELD     FAIR      23   3  42 N8        29.76R WCI  14
FORT COLLINS   FAIR      18   7  62 CALM      29.78F
LONGMONT       FAIR      23  12  61 NW7       29.80S WCI  15
$$

COZ041-046-047-076>085-087-088-261100-
...PIKES PEAK/PALMER DIVIDE AND SOUTHERN FOOTHILLS...

CITY           SKY/WX    TMP DP  RH WIND       PRES   REMARKS
COLO. SPRINGS  FAIR      21  -1  38 NE9       29.75F WCI  11
A. F. ACADEMY  FAIR      22  -1  36 NE6       29.72F WCI  15
SCHRIEVER AFB  FAIR      20  -1  39 N8        29.76F WCI  10
ELLICOTT       NOT AVBL
FALCON         FAIR      19   0  42 W9        29.75F WCI   9
FORT CARSON    FAIR      25   0  34 N5        29.75S WCI  19
LIMON          FAIR       5  -2  72 N6        29.79S WCI  -6
MONUMENT HILL  FAIR      16   0  48 W5        29.75S WCI   9
TRINIDAD       FAIR      14   1  56 NW7       29.79F WCI   4
$$

COZ042>045-048>051-090-091-261100-
...NORTHEAST COLORADO...

CITY           SKY/WX    TMP DP  RH WIND       PRES   REMARKS
GREELEY ARPT   FAIR      15   7  70 CALM      29.82S
AKRON          FAIR      20   8  60 SE3       29.82S
BURLINGTON     FAIR       9   2  73 NW8       29.83R WCI  -3
WRAY           NOT AVBL
STERLING       FAIR      19  10  68 W7        29.83F WCI  10
HOLYOKE        FAIR      23  16  74 W9        29.85S WCI  13
FORT MORGAN    FAIR      17  10  74 NE7       29.83S WCI   8
$$

COZ086-089-092>099-261100-
...SOUTHEAST COLORADO...

CITY           SKY/WX    TMP DP  RH WIND       PRES   REMARKS
PUEBLO         FAIR      20   2  45 E8        29.80S WCI  10
LA JUNTA       FAIR      20   4  50 W5        29.81F WCI  13
LAMAR          FAIR      14   4  64 SW3       29.82F
SPRINGFIELD      N/A     17   2  51 NW9       29.80S WCI   6
$$




USA.gov is the U.S. government's official web portal to all federal, state and local government web resources and services.